STARLINK-35308, 65848

Orbit data source: Space-Track

STARLINK-35308, 65848 is a payload satellite owned by SpaceX/Seattle (US) in LEO that was launched on Mon, 29 Sep 2025 UTC via an FALCON 9 launch vehicle from the Air Force Western Test Range (AFWTR). Payload-class satellites include a variety of spacecraft equipped with specific instruments for various scientific and technological missions. These include communications satellites like Starlink; space stations such as the ISS; scientific satellites like the Hubble; Earth observation satellites from companies like Planet Labs, Umbra, and HawkEye 360; GPS; miniature CubeSats for education and research; and military/defense satellites.

Loading next visibility...
Identifier
65848, 2025-221AB
Orbit
LEO
Country
Flag of USUS
Related business
Manufacturer
SpaceX/Seattle
Mission
Operational spacecraft
Bus & Motor
STARLINK V2MO, Unknown motor
Mass
575 kg wet, ~530 kg dry
Launch date (UTC)
2025-09-29 (3 weeks ago)
Launch vehicle
FALCON 9
Launch site
Air Force Western Test Range (AFWTR)
Object type
Payload
Rocket body
Debris
Shape & HBR
Unknown shape, 17.7 m
Radar Cross Section
RCS unknown

Expand to show TLE details & history
Last TLE update: 5 hours ago

TLE from 5 hours ago
0 STARLINK-35308
1 65848U 25221AB  25291.25003472 -.01645520  00000-0 -26536-1 0  9993
2 65848  53.1602  32.5822 0001227  70.3353  99.1132 15.55307200  4271
Epoch: 2025-10-18T06:00Z
TLE epoch observation values (Epoch: 2025-10-18T06:00:02.999Z)
Latitude
8.38826°
Longitude
89.27897°
Altitude
401.6 km
Speed
7.671 km/s
True Right ascension
13h 45m 06s
True Declination
8° 20' 10"
Sunlit
Object was in daylight at epoch
Visualization orbit readout
Latitude
Unknown
Longitude
Unknown
Altitude
Unknown
Speed
Unknown
Apparent Right ascension
Unknown
Apparent Declination
Unknown
Sunlit
N/A
Visualization observer readout
Local Sidereal Time
06:03:38
Azimuth
Unknown
Elevation
Unknown
Doppler factor
Unknown
Orbital elements
Apogee altitude
402.351 km
Perigee altitude
400.687 km
Semi-major axis
6,779.656 km
Eccentricity
0.00012
Inclination
53.1602°
RAAN
32.5822°
Arg. of periapsis
70.3353°
True anomaly
99.12708°
Mean anomaly
99.1132°
Eccentric anomaly
99.12014°
Mean motion
3.88805 °/min
Orbital period
92.59 mins
BSTAR
-0.026536
Loading maneuver chart data...
Computing Atmospheric mass density...
Loading historical data...
Loading historical data...
Loading historical data...
Loading historical data...
Loading historical data...
Loading historical data...
Loading historical data...

Documentation

Showing up to 5 results
|